Voltar ao catálogo

STARLINK-34620

AtivoComunicaçõesVLEO
NORAD 64803·PAYLOAD·🇺🇸 United States

Lançado Jul 16, 2025 de Vandenberg Space Force Base

Loading…

Próximas Passagens (próximas 24 horas)

TLE

AtualizadoSource: CelesTrak SupGP

Época: Sep 15, 2026, 02:50 UTC

1 64803C 25150P   26258.11854167  .00034513  00000+0  28927-2 0  2583
2 64803  70.0030  16.9922 0003540 268.3770 226.0763 14.98306592    11

Acompanhe STARLINK-34620 em tempo real com AllMySat

Download on the App Store